STARLINK-11529, 62599

Orbit data source: Space-Track

STARLINK-11529, 62599 is a payload satellite owned by SpaceX/Seattle (US) in LEO that was launched on Mon, 13 Jan 2025 UTC via an FALCON 9 launch vehicle from the Air Force Eastern Test Range (AFETR). Payload-class satellites include a variety of spacecraft equipped with specific instruments for various scientific and technological missions. These include communications satellites like Starlink; space stations such as the ISS; scientific satellites like the Hubble; Earth observation satellites from companies like Planet Labs, Umbra, and HawkEye 360; GPS; miniature CubeSats for education and research; and military/defense satellites.

Loading next visibility...
Identifier
62599, 2025-008N
Orbit
LEO
Last TLE update
18 hours ago
Origin
Manufacturer
SpaceX/Seattle
Mission
Operational Commercial Communications
Bus & Motor
STARLINK V2M, Unknown motor
Mass
730 kg wet, ~700 kg dry
Launch date (UTC)
2025-01-13 (4 months ago)
Launch vehicle
FALCON 9
Launch site
Air Force Eastern Test Range (AFETR)
Object type
Payload
Rocket body
Debris
Shape & HBR
Box + 2 Pan, 29 m
Radar Cross Section
36.964 m², Large (>1 m²)

Expand to show TLE details & history

TLE from 18 hours ago
0 STARLINK-11529
1 62599U 25008N   25128.54923466  .00003771  00000-0  32906-4 0  9995
2 62599  43.0012 165.4429 0001516 285.0278  75.0422 15.70811861 19298
Epoch: 2025-05-08T13:10Z
Definitive object data (Epoch: 2025-05-08T13:10:53.874Z)
Latitude
-0.00001°
Longitude
101.10028°
Altitude
356.083 km
Speed
7.698 km/s
True Right ascension
11h 01m 46s
True Declination
0° 00' 00"
Sunlit
Object was in full shadow at TLE epoch
Visualization TLE readout
Latitude
-29.0664°
Longitude
-47.00967°
Altitude
363.767 km
Speed
7.692 km/s
Apparent Right ascension
02h 01m 20s
Apparent Declination
-35° 00' 35"
Sunlit
Object is in daylight
Visualization observer readout
Local Sidereal Time
15:04:12
Azimuth
73.463° E
Elevation
-76.618°
Doppler factor
1
Orbital elements
Apogee altitude
359.578 km
Perigee altitude
357.536 km
Semi-major axis
6,736.694 km
Eccentricity
0.0001516
Inclination
43.0012°
RAAN
165.4429°
Arg. of periapsis
285.0278°
True anomaly
75.05898°
Mean anomaly
75.0422°
Eccentric anomaly
75.05059°
Mean motion
3.9253 °/min
BSTAR
0.000032906
Orbital period
91.71 mins
Loading maneuver chart data...
Loading SW <> Apogee altitude chart data...
Loading historical data...
Loading historical data...
Loading historical data...
Loading historical data...
Loading historical data...
Loading historical data...
Loading historical data...

STARLINK-11529 Visibility forecast

Observer location: undefined°, undefined°

Span
Click to sort rows by Start time (UTC) header in descending order
Start Az.
Max El. time (UTC)
Max El. Az.
Max El.
End time (UTC)
End Az.
4 mins2025-05-09 07:48:18.062Z280.402° WNW2025-05-09 07:50:18.062Z346.764° N36.841°2025-05-09 07:52:18.062Z62.79° ENE
4 mins2025-05-09 09:25:18.062Z302.949° NW2025-05-09 09:26:18.062Z335.638° NNW36.095°2025-05-09 09:29:18.062Z86.921° E
4 mins2025-05-09 11:01:18.062Z266.115° W2025-05-09 11:03:18.062Z176.484° S31.475°2025-05-09 11:05:18.062Z135.565° SSE
4 mins2025-05-10 06:40:18.062Z265.853° W2025-05-10 06:41:18.062Z286.981° WNW39.525°2025-05-10 06:44:18.062Z68.822° E
|